Location: Bagong Pook
(14.2541°N, 120.8791°E)
Time: 02:25:26
(UTC+00:00)

GPS 2-17 Rocket1 - Pass Details

Date: 13 January 2026
Orbit: 545 x 615 km, 20.3° (Epoch: 16 February)

Event Time Altitude Azimuth Distance (km) Brightness Sun altitude
Rises 11:18:34 0° 288° (WNW) 2,828 7.3 -22.0°
Reaches altitude 10° 11:21:00 10° 294° (WNW) 1,915 6.2 -22.5°
Enters shadow 11:24:48 44° 347° (NNW) 812 3.5 -23.4°
